When you browse on this site, cookies collect data to enhance your experience and personalize the content and advertising you see.
Visit our Privacy Policy to learn more. By continuing to use the site, you agree to this use of cookies and data.
  • In Austria
  • List of Countries
  • For 7 days
  • Water Temperature
  • Weather Map
  • News
  • Weather Widgets
  • user-avatar
    Login

    Hourly Weather Kapan

    Today, 20 February, Thursday

    Time Temperature Precipitation Wind Pressure Humidity
    00:00 +5°C° 0 mm 1 mps 682 mmHg 79%
    01:00 +5°C° 0.1 mm 1 mps 681 mmHg 81%
    02:00 +5°C° 0.1 mm 1 mps 681 mmHg 83%
    03:00 +5°C° 0 mm 1 mps 680 mmHg 86%
    04:00 +4°C° 0.6 mm 0 mps 680 mmHg 89%
    05:00 +4°C° 0.6 mm 0 mps 680 mmHg 91%
    06:00 +4°C° 0.6 mm 0 mps 680 mmHg 94%
    07:00 +4°C° 0.5 mm 0 mps 680 mmHg 95%
    08:00 +5°C° 0.5 mm 0 mps 681 mmHg 96%
    09:00 +5°C° 0 mm 0 mps 681 mmHg 97%
    10:00 +6°C° 0.1 mm 1 mps 681 mmHg 97%
    11:00 +6°C° 0.1 mm 1 mps 681 mmHg 97%
    12:00 +6°C° 0.1 mm 1 mps 681 mmHg 98%
    13:00 +6°C° 0.1 mm 1 mps 680 mmHg 98%
    14:00 +6°C° 0.1 mm 1 mps 680 mmHg 97%
    15:00 +6°C° 0.1 mm 1 mps 679 mmHg 97%
    16:00 +5°C° 0 mm 1 mps 680 mmHg 97%
    17:00 +4°C° 0 mm 0 mps 680 mmHg 97%
    18:00 +4°C° 0 mm 0 mps 680 mmHg 97%
    19:00 +4°C° 0 mm 0 mps 681 mmHg 95%
    20:00 +5°C° 0 mm 1 mps 681 mmHg 94%
    21:00 +5°C° 0 mm 1 mps 681 mmHg 92%
    22:00 +4°C° 0 mm 1 mps 681 mmHg 90%
    23:00 +4°C° 0 mm 1 mps 681 mmHg 88%

    Tomorrow, 21 February, Friday

    Time Temperature Precipitation Wind Pressure Humidity
    00:00 +3°C° 0 mm 2 mps 681 mmHg 86%
    01:00 +3°C° 0 mm 2 mps 681 mmHg 86%
    02:00 +3°C° 0 mm 2 mps 681 mmHg 85%
    03:00 +2°C° 0 mm 2 mps 681 mmHg 84%
    04:00 +2°C° 0 mm 2 mps 681 mmHg 82%
    05:00 +2°C° 0 mm 2 mps 682 mmHg 81%
    06:00 +2°C° 0 mm 2 mps 682 mmHg 80%
    07:00 +4°C° 0 mm 2 mps 682 mmHg 80%
    08:00 +6°C° 0 mm 1 mps 683 mmHg 80%
    09:00 +7°C° 0 mm 1 mps 683 mmHg 80%
    16:00 +8°C° 0 mm 2 mps 683 mmHg 75%
    17:00 +6°C° 0 mm 2 mps 683 mmHg 76%
    18:00 +5°C° 0 mm 2 mps 683 mmHg 76%
    19:00 +5°C° 0 mm 2 mps 683 mmHg 74%
    20:00 +4°C° 0 mm 2 mps 684 mmHg 72%
    21:00 +4°C° 0 mm 2 mps 684 mmHg 69%
    22:00 +4°C° 0 mm 2 mps 684 mmHg 69%
    23:00 +4°C° 0 mm 2 mps 684 mmHg 69%

    Day after tomorrow, 22 February, Saturday

    Time Temperature Precipitation Wind Pressure Humidity
    00:00 +4°C° 0 mm 2 mps 684 mmHg 69%
    01:00 +4°C° 0 mm 2 mps 684 mmHg 70%
    02:00 +5°C° 0 mm 1 mps 684 mmHg 71%
    03:00 +5°C° 0 mm 1 mps 684 mmHg 72%
    04:00 +5°C° 0 mm 1 mps 684 mmHg 74%
    05:00 +5°C° 0 mm 1 mps 684 mmHg 75%
    06:00 +3°C° 0 mm 0 mps 684 mmHg 77%
    07:00 +4°C° 0 mm 0 mps 684 mmHg 79%
    08:00 +5°C° 0 mm 0 mps 685 mmHg 81%
    09:00 +6°C° 0 mm 0 mps 685 mmHg 83%
    10:00 +7°C° 0 mm 1 mps 685 mmHg 84%
    11:00 +8°C° 0 mm 1 mps 685 mmHg 84%
    12:00 +8°C° 0 mm 1 mps 685 mmHg 85%
    13:00 +8°C° 0 mm 1 mps 685 mmHg 86%
    14:00 +8°C° 0 mm 1 mps 684 mmHg 87%
    15:00 +8°C° 0 mm 1 mps 684 mmHg 88%
    16:00 +7°C° 0 mm 1 mps 684 mmHg 89%
    17:00 +7°C° 0 mm 1 mps 684 mmHg 91%
    18:00 +6°C° 0 mm 1 mps 684 mmHg 93%
    19:00 +6°C° 0 mm 1 mps 684 mmHg 89%
    20:00 +5°C° 0 mm 1 mps 684 mmHg 86%
    21:00 +5°C° 0 mm 1 mps 684 mmHg 83%
    22:00 +5°C° 0 mm 1 mps 684 mmHg 81%
    23:00 +5°C° 0 mm 1 mps 684 mmHg 79%

    23 February, Sunday

    Time Temperature Precipitation Wind Pressure Humidity
    00:00 +5°C° 0 mm 1 mps 684 mmHg 77%
    01:00 +5°C° 0 mm 1 mps 684 mmHg 78%
    02:00 +4°C° 0 mm 1 mps 684 mmHg 79%
    03:00 +4°C° 0 mm 1 mps 684 mmHg 81%
    04:00 +4°C° 0 mm 1 mps 684 mmHg 81%
    05:00 +4°C° 0 mm 1 mps 684 mmHg 82%
    06:00 +4°C° 0 mm 1 mps 683 mmHg 83%
    07:00 +5°C° 0 mm 1 mps 684 mmHg 84%
    08:00 +6°C° 0 mm 1 mps 684 mmHg 85%
    09:00 +7°C° 0 mm 1 mps 684 mmHg 86%
    10:00 +8°C° 0 mm 1 mps 684 mmHg 85%
    11:00 +8°C° 0 mm 1 mps 684 mmHg 83%
    12:00 +9°C° 0 mm 1 mps 684 mmHg 82%
    13:00 +9°C° 0 mm 1 mps 684 mmHg 81%
    14:00 +8°C° 0 mm 2 mps 683 mmHg 80%
    15:00 +9°C° 0 mm 2 mps 683 mmHg 79%
    16:00 +8°C° 0 mm 2 mps 683 mmHg 81%
    17:00 +7°C° 0 mm 2 mps 683 mmHg 82%
    18:00 +6°C° 0 mm 2 mps 683 mmHg 84%
    19:00 +5°C° 0 mm 2 mps 683 mmHg 83%
    20:00 +5°C° 0 mm 2 mps 683 mmHg 81%
    21:00 +5°C° 0 mm 2 mps 683 mmHg 80%
    22:00 +5°C° 0 mm 2 mps 683 mmHg 79%
    23:00 +4°C° 0 mm 2 mps 683 mmHg 77%

    24 February, Monday

    Time Temperature Precipitation Wind Pressure Humidity
    00:00 +4°C° 0 mm 2 mps 683 mmHg 76%
    01:00 +4°C° 0 mm 2 mps 683 mmHg 75%
    02:00 +4°C° 0 mm 2 mps 682 mmHg 74%
    03:00 +4°C° 0 mm 2 mps 682 mmHg 74%
    04:00 +4°C° 0 mm 2 mps 682 mmHg 74%
    05:00 +4°C° 0 mm 2 mps 682 mmHg 74%
    06:00 +3°C° 0 mm 2 mps 682 mmHg 74%
    07:00 +5°C° 0 mm 2 mps 682 mmHg 72%
    08:00 +6°C° 0 mm 2 mps 682 mmHg 70%
    09:00 +7°C° 0 mm 2 mps 682 mmHg 68%
    10:00 +8°C° 0 mm 2 mps 682 mmHg 66%
    11:00 +9°C° 0 mm 2 mps 681 mmHg 64%
    12:00 +10°C° 0 mm 2 mps 681 mmHg 62%
    13:00 +10°C° 0 mm 2 mps 680 mmHg 61%
    14:00 +10°C° 0 mm 2 mps 680 mmHg 60%
    15:00 +12°C° 0 mm 2 mps 679 mmHg 59%
    16:00 +9°C° 0 mm 2 mps 678 mmHg 64%
    17:00 +8°C° 0 mm 2 mps 678 mmHg 69%
    18:00 +6°C° 0 mm 2 mps 678 mmHg 74%
    19:00 +6°C° 0 mm 2 mps 678 mmHg 73%
    20:00 +7°C° 0 mm 1 mps 677 mmHg 72%
    21:00 +6°C° 0 mm 1 mps 677 mmHg 72%
    22:00 +5°C° 0 mm 2 mps 677 mmHg 71%
    23:00 +5°C° 0 mm 2 mps 676 mmHg 70%

    25 February, Tuesday

    Time Temperature Precipitation Wind Pressure Humidity
    00:00 +5°C° 0 mm 2 mps 676 mmHg 69%
    01:00 +5°C° 0 mm 2 mps 675 mmHg 68%
    02:00 +5°C° 0 mm 2 mps 675 mmHg 67%
    03:00 +4°C° 0 mm 2 mps 674 mmHg 65%
    04:00 +4°C° 0 mm 2 mps 674 mmHg 64%
    05:00 +4°C° 0 mm 2 mps 673 mmHg 64%
    06:00 +4°C° 0 mm 2 mps 673 mmHg 63%
    07:00 +5°C° 0 mm 2 mps 673 mmHg 62%
    08:00 +6°C° 0 mm 2 mps 673 mmHg 61%
    09:00 +8°C° 0 mm 1 mps 673 mmHg 60%
    10:00 +7°C° 0.1 mm 2 mps 673 mmHg 68%
    11:00 +6°C° 0.1 mm 2 mps 672 mmHg 76%
    12:00 +4°C° 0.1 mm 3 mps 672 mmHg 84%
    13:00 +5°C° 0.3 mm 2 mps 672 mmHg 82%
    14:00 +5°C° 0.3 mm 2 mps 671 mmHg 81%
    15:00 +6°C° 0.3 mm 1 mps 671 mmHg 80%
    16:00 +6°C° 0.2 mm 1 mps 671 mmHg 81%
    17:00 +6°C° 0.2 mm 1 mps 672 mmHg 83%
    18:00 +5°C° 0.2 mm 1 mps 673 mmHg 84%
    19:00 +5°C° 0.7 mm 1 mps 674 mmHg 88%
    20:00 +4°C° 0.7 mm 1 mps 674 mmHg 91%
    21:00 +3°C° 0.7 mm 1 mps 675 mmHg 94%
    22:00 +3°C° 0.4 mm 1 mps 676 mmHg 92%
    23:00 +3°C° 0.4 mm 1 mps 677 mmHg 91%
    Show more